Zurück zum Katalog

OPTUS B3

AktivKommunikationGEO
NORAD 23227·PAYLOAD·🇦🇺 Australia

Gestartet Aug 27, 1994 von Xichang Satellite Launch Center

Loading…

TLE

AktuellSource: Space-Track

Epoche: Sep 14, 2026, 12:32 UTC

1 23227U 94055A   26257.52289031 -.00000165  00000-0  00000-0 0  9994
2 23227  12.4986  29.6387 0003399  51.7477 287.4503  0.98698581116795

Verfolge OPTUS B3 in Echtzeit mit AllMySat

Download on the App Store